OpenBCM V1.13 (Linux)

Packet Radio Mailbox

DB0FHN

[JN59NK Nuernberg]

 Login: GUEST





  
CX2SA  > KEPS     01.10.04 05:16l 277 Lines 7265 Bytes #999 (0) @ AMSAT
BID : ORB04274.D
Read: GUEST
Subj: Orbital Elements  04274.MICROS
Path: DB0FHN<DB0MRW<DB0SIF<DB0EA<DB0SM<DB0PKE<DB0GOS<ON0AR<ON0AR<LU6DTS<
      LU7EC<ED1ZAC<CX2SA
Sent: 041001/0308Z @:CX2SA.LAV.URY.SA #:20915 [Minas] FBB7.00e $:ORB04274.D
From: CX2SA@CX2SA.LAV.URY.SA
To  : KEPS@AMSAT


HR AMSAT ORBITAL ELEMENTS FOR THE MICROSATS
FROM WA5QGD FORT WORTH,TX September 30, 2004
SEND SUBSCRIBE/UNSUBSCRIBE TO majordomo@amsat.org ONLY
BID: ORB04274.D
TO ALL RADIO AMATEURS BT

Satellite: UO-14
Catalog number: 20437
Epoch time:      04274.50651664
Element set:     604
Inclination:       98.2060 deg
RA of node:       292.6483 deg
Eccentricity:    0.0009802
Arg of perigee:   245.9599 deg
Mean anomaly:     114.0570 deg
Mean motion:   14.31372654 rev/day
Decay rate:        6.0e-08 rev/day^2
Epoch rev:           76688
Checksum:              309

Satellite: AO-16
Catalog number: 20439
Epoch time:      04274.13914681
Element set:     291
Inclination:       98.2382 deg
RA of node:       306.9817 deg
Eccentricity:    0.0010036
Arg of perigee:   256.7888 deg
Mean anomaly:     103.2184 deg
Mean motion:   14.31630696 rev/day
Decay rate:        3.9e-07 rev/day^2
Epoch rev:           76688
Checksum:              323

Satellite: WO-18
Catalog number: 20441
Epoch time:      04274.29713334
Element set:     479
Inclination:       98.2523 deg
RA of node:       311.2004 deg
Eccentricity:    0.0010524
Arg of perigee:   256.5843 deg
Mean anomaly:     103.4173 deg
Mean motion:   14.31705876 rev/day
Decay rate:        2.5e-07 rev/day^2
Epoch rev:           76696
Checksum:              287

Satellite: LO-19
Catalog number: 20442
Epoch time:      04273.71742635
Element set:    0241
Inclination:      098.2637 deg
RA of node:       314.7410 deg
Eccentricity:    0.0010964
Arg of perigee:   258.0988 deg
Mean anomaly:     101.8967 deg
Mean motion:   14.31877164 rev/day
Decay rate:        2.4e-07 rev/day^2
Epoch rev:           76694
Checksum:              318

Satellite: UO-22
Catalog number: 21575
Epoch time:      04273.88432979
Element set:     216
Inclination:       98.2048 deg
RA of node:       243.5949 deg
Eccentricity:    0.0008064
Arg of perigee:   147.7972 deg
Mean anomaly:     212.3720 deg
Mean motion:   14.39416447 rev/day
Decay rate:        3.6e-07 rev/day^2
Epoch rev:           69305
Checksum:              324

Satellite: KO-23
Catalog number: 22077
Epoch time:      04274.63739788
Element set:     296
Inclination:       66.0893 deg
RA of node:       330.0152 deg
Eccentricity:    0.0009661
Arg of perigee:   316.7194 deg
Mean anomaly:      43.3066 deg
Mean motion:   12.86425457 rev/day
Decay rate:       -3.7e-07 rev/day^2
Epoch rev:           57020
Checksum:              309

Satellite: AO-27
Catalog number: 22825
Epoch time:      04274.09451057
Element set:     951
Inclination:       98.2446 deg
RA of node:       277.5228 deg
Eccentricity:    0.0007494
Arg of perigee:   318.2423 deg
Mean anomaly:      41.8195 deg
Mean motion:   14.29086868 rev/day
Decay rate:        4.7e-07 rev/day^2
Epoch rev:           57407
Checksum:              329

Satellite: IO-26
Catalog number: 22826
Epoch time:      04274.51959219
Element set:     626
Inclination:       98.2431 deg
RA of node:       279.2088 deg
Eccentricity:    0.0008567
Arg of perigee:   317.1888 deg
Mean anomaly:      42.8623 deg
Mean motion:   14.29323578 rev/day
Decay rate:        3.3e-07 rev/day^2
Epoch rev:           57419
Checksum:              337

Satellite: KO-25
Catalog number: 22828
Epoch time:      04272.05461050
Element set:    0890
Inclination:      098.2364 deg
RA of node:       277.1121 deg
Eccentricity:    0.0009082
Arg of perigee:   299.1505 deg
Mean anomaly:     060.8763 deg
Mean motion:   14.29642812 rev/day
Decay rate:       -4.1e-07 rev/day^2
Epoch rev:           54206
Checksum:              288

Satellite: TO-31
Catalog number: 25396
Epoch time:      04274.64930370
Element set:      79
Inclination:       98.5656 deg
RA of node:       343.2474 deg
Eccentricity:    0.0002215
Arg of perigee:   191.2981 deg
Mean anomaly:     168.8150 deg
Mean motion:   14.23635228 rev/day
Decay rate:       -4.3e-07 rev/day^2
Epoch rev:           32348
Checksum:              305

Satellite: GO-32
Catalog number: 25397
Epoch time:      04273.85305295
Element set:     571
Inclination:       98.5586 deg
RA of node:       340.4687 deg
Eccentricity:    0.0001109
Arg of perigee:   179.6095 deg
Mean anomaly:     180.5059 deg
Mean motion:   14.23052526 rev/day
Decay rate:        2.9e-07 rev/day^2
Epoch rev:           32330
Checksum:              309

Satellite: UO-36
Catalog number: 25693
Epoch time:      04274.79774654
Element set:     500
Inclination:       64.5612 deg
RA of node:         0.2539 deg
Eccentricity:    0.0045960
Arg of perigee:   245.3746 deg
Mean anomaly:     114.2568 deg
Mean motion:   14.78388814 rev/day
Decay rate:        1.4e-07 rev/day^2
Epoch rev:           29347
Checksum:              323

Satellite: SO-41
Catalog number: 26545
Epoch time:      04274.57087277
Element set:     890
Inclination:       64.5611 deg
RA of node:        17.1346 deg
Eccentricity:    0.0020782
Arg of perigee:   352.9104 deg
Mean anomaly:       7.1680 deg
Mean motion:   14.79864893 rev/day
Decay rate:       1.50e-06 rev/day^2
Epoch rev:           21650
Checksum:              303

Satellite: MO-46
Catalog number: 26548
Epoch time:      04274.56424955
Element set:     990
Inclination:       64.5602 deg
RA of node:         3.0072 deg
Eccentricity:    0.0020990
Arg of perigee:   335.2888 deg
Mean anomaly:      24.7216 deg
Mean motion:   14.82417558 rev/day
Decay rate:       1.67e-06 rev/day^2
Epoch rev:           21679
Checksum:              318

Satellite: SO-42
Catalog number: 26549
Epoch time:      04273.75631258
Element set:    0970
Inclination:      064.5557 deg
RA of node:       026.8543 deg
Eccentricity:    0.0020516
Arg of perigee:   007.3898 deg
Mean anomaly:     352.7503 deg
Mean motion:   14.78757447 rev/day
Decay rate:       1.65e-06 rev/day^2
Epoch rev:           21624
Checksum:              326

Satellite: NO-44
Catalog number: 26931
Epoch time:      04274.23186045
Element set:     863
Inclination:       67.0538 deg
RA of node:       177.2864 deg
Eccentricity:    0.0006782
Arg of perigee:   271.5428 deg
Mean anomaly:      88.4909 deg
Mean motion:   14.29324770 rev/day
Decay rate:       1.43e-06 rev/day^2
Epoch rev:           15661
Checksum:              322

Satellite: AO-49
Catalog number: 27605
Epoch time:      04274.81050234
Element set:     549
Inclination:       64.5583 deg
RA of node:       203.8860 deg
Eccentricity:    0.0083161
Arg of perigee:   290.6520 deg
Mean anomaly:      68.5698 deg
Mean motion:   14.71936188 rev/day
Decay rate:       1.28e-06 rev/day^2
Epoch rev:            9567
Checksum:              330

Satellite: SO-50
Catalog number: 27607
Epoch time:      04274.31255961
Element set:     530
Inclination:       64.5591 deg
RA of node:       209.5854 deg
Eccentricity:    0.0084259
Arg of perigee:   289.7473 deg
Mean anomaly:      69.4564 deg
Mean motion:   14.70731996 rev/day
Decay rate:       1.57e-06 rev/day^2
Epoch rev:            9551
Checksum:              339

Satellite: AO-51
Catalog number: 28375
Epoch time:      04274.74891422
Element set:      73
Inclination:       98.2502 deg
RA of node:       341.0933 deg
Eccentricity:    0.0083517
Arg of perigee:   294.8817 deg
Mean anomaly:      64.3704 deg
Mean motion:   14.40391492 rev/day
Decay rate:        3.9e-07 rev/day^2
Epoch rev:            1326
Checksum:              303



Read previous mail | Read next mail


 15.06.2026 04:10:27lGo back Go up